| time (UTC) | temp F | wind direction | speed knots | gust knots | rain 1hr in | rain 24hr in | rain mn in | humidity % | barometer mb |
| 20260504174012 | 58 | 271 | 6.1 | 10.4 | 0.00 | 0.00 | 0.00 | 37 | 1015.8 |
| 20260504173513 | 58 | 277 | 6.1 | 9.6 | 0.00 | 0.00 | 0.00 | 37 | 1015.8 |
| 20260504173034 | 58 | 330 | 3.5 | 7.0 | 0.00 | 0.00 | 0.00 | 37 | 1015.8 |
| 20260504172514 | 58 | 320 | 2.6 | 4.3 | 0.00 | 0.00 | 0.00 | 39 | 1015.8 |
| 20260504172014 | 58 | 290 | 3.5 | 8.7 | 0.00 | 0.00 | 0.00 | 38 | 1015.8 |
| 20260504171535 | 57 | 288 | 3.5 | 8.7 | 0.00 | 0.00 | 0.00 | 40 | 1016.0 |
| 20260504171014 | 57 | 310 | 5.2 | 8.7 | 0.00 | 0.00 | 0.00 | 37 | 1015.8 |
| 20260504170512 | 57 | 277 | 3.5 | 7.8 | 0.00 | 0.00 | 0.00 | 38 | 1015.8 |
| 20260504151014 | 53 | 310 | 4.3 | 7.8 | 0.00 | 0.00 | 0.00 | 39 | 1016.0 |
| 20260504150515 | 53 | 305 | 4.3 | 8.7 | 0.00 | 0.00 | 0.00 | 39 | 1016.1 |
| 20260504141013 | 52 | 313 | 7.0 | 12.2 | 0.00 | 0.00 | 0.00 | 39 | 1015.7 |
| 20260504140513 | 52 | 298 | 4.3 | 10.4 | 0.00 | 0.00 | 0.00 | 40 | 1015.8 |
| 20260504130514 | 52 | 326 | 6.1 | 9.6 | 0.00 | 0.00 | 0.00 | 37 | 1015.6 |
| 20260504110514 | 53 | 315 | 4.3 | 7.8 | 0.00 | 0.00 | 0.00 | 36 | 1015.9 |
| 20260504100513 | 54 | 311 | 7.0 | 8.7 | 0.00 | 0.00 | 0.00 | 37 | 1015.8 |
| 20260504081551 | 56 | 310 | 4.3 | 8.7 | 0.00 | 0.00 | 0.00 | 37 | 1016.2 |
| 20260504081016 | 56 | 310 | 4.3 | 8.7 | 0.00 | 0.00 | 0.00 | 37 | 1016.2 |
| 20260504080513 | 56 | 302 | 4.3 | 7.0 | 0.00 | 0.00 | 0.00 | 37 | 1016.1 |
| 20260504050520 | 58 | 360 | 2.6 | 7.0 | 0.00 | 0.00 | 0.00 | 35 | 1016.7 |
| 20260504050335 | 58 | 360 | 3.5 | 7.0 | 0.00 | 0.00 | 0.00 | 35 | 1016.7 |
| 20260504045618 | 58 | 331 | 4.3 | 7.8 | 0.00 | 0.00 | 0.00 | 34 | 1016.7 |
| 20260504045018 | 58 | 329 | 4.3 | 7.8 | 0.00 | 0.00 | 0.00 | 34 | 1016.7 |
| 20260504044557 | 59 | 329 | 4.3 | 8.7 | 0.00 | 0.00 | 0.00 | 35 | 1016.6 |
| 20260504044015 | 59 | 322 | 5.2 | 8.7 | 0.00 | 0.00 | 0.00 | 34 | 1016.7 |
| 20260504043515 | 59 | 321 | 4.3 | 8.7 | 0.00 | 0.00 | 0.00 | 34 | 1016.7 |
| 20260504043053 | 59 | 326 | 5.2 | 7.8 | 0.00 | 0.00 | 0.00 | 34 | 1016.7 |
| 20260504042517 | 59 | 316 | 5.2 | 9.6 | 0.00 | 0.00 | 0.00 | 34 | 1016.7 |
| 20260504042019 | 59 | 317 | 6.1 | 9.6 | 0.00 | 0.00 | 0.00 | 34 | 1016.7 |
| 20260504041550 | 59 | 318 | 6.1 | 8.7 | 0.00 | 0.00 | 0.00 | 34 | 1016.7 |
| 20260504041016 | 59 | 327 | 6.1 | 9.6 | 0.00 | 0.00 | 0.00 | 34 | 1016.5 |
| 20260504040515 | 59 | 323 | 5.2 | 10.4 | 0.00 | 0.00 | 0.00 | 34 | 1016.7 |
| 20260504040053 | 59 | 327 | 5.2 | 10.4 | 0.00 | 0.00 | 0.00 | 34 | 1016.5 |
| 20260504035530 | 59 | 318 | 6.1 | 10.4 | 0.00 | 0.00 | 0.00 | 34 | 1016.6 |
| 20260504035020 | 60 | 332 | 7.8 | 11.3 | 0.00 | 0.00 | 0.00 | 33 | 1016.4 |
| 20260504034600 | 60 | 303 | 7.8 | 11.3 | 0.00 | 0.00 | 0.00 | 33 | 1016.3 |
| 20260504034016 | 60 | 314 | 7.0 | 11.3 | 0.00 | 0.00 | 0.00 | 33 | 1016.3 |
| 20260504033700 | 60 | 329 | 7.8 | 11.3 | 0.00 | 0.00 | 0.00 | 33 | 1016.1 |
| 20260504032518 | 60 | 319 | 8.7 | 10.4 | 0.00 | 0.00 | 0.00 | 32 | 1016.2 |
| 20260504032015 | 61 | 312 | 7.0 | 13.0 | 0.00 | 0.00 | 0.00 | 33 | 1016.1 |
| 20260504031008 | 61 | 312 | 7.8 | 11.3 | 0.00 | 0.00 | 0.00 | 31 | 1016.2 |
| 20260504030548 | 62 | 307 | 7.0 | 11.3 | 0.00 | 0.00 | 0.00 | 32 | 1016.3 |
| 20260504025518 | 62 | 306 | 7.0 | 11.3 | 0.00 | 0.00 | 0.00 | 31 | 1016.2 |
| 20260504025017 | 63 | 333 | 7.0 | 12.2 | 0.00 | 0.00 | 0.00 | 30 | 1016.1 |
| 20260504024018 | 63 | 317 | 8.7 | 13.0 | 0.00 | 0.00 | 0.00 | 30 | 1015.9 |
| 20260504023519 | 64 | 319 | 8.7 | 11.3 | 0.00 | 0.00 | 0.00 | 29 | 1016.1 |
| 20260504022521 | 64 | 330 | 5.2 | 10.4 | 0.00 | 0.00 | 0.00 | 29 | 1016.0 |
| 20260504022020 | 64 | 281 | 7.0 | 10.4 | 0.00 | 0.00 | 0.00 | 30 | 1016.1 |
| 20260504021558 | 64 | 352 | 4.3 | 11.3 | 0.00 | 0.00 | 0.00 | 28 | 1016.2 |
| 20260504021017 | 64 | 307 | 5.2 | 13.0 | 0.00 | 0.00 | 0.00 | 29 | 1016.2 |
| 20260504020522 | 65 | 284 | 7.8 | 13.9 | 0.00 | 0.00 | 0.00 | 28 | 1016.2 |
| 20260504020055 | 65 | 327 | 8.7 | 13.9 | 0.00 | 0.00 | 0.00 | 27 | 1016.2 |
| 20260504015520 | 66 | 302 | 7.8 | 15.6 | 0.00 | 0.00 | 0.00 | 27 | 1016.2 |
| 20260504015018 | 66 | 288 | 8.7 | 15.6 | 0.00 | 0.00 | 0.00 | 28 | 1016.2 |
| 20260504014605 | 66 | 237 | 7.8 | 15.6 | 0.00 | 0.00 | 0.00 | 27 | 1016.2 |
| 20260504014019 | 66 | 273 | 7.8 | 16.5 | 0.00 | 0.00 | 0.00 | 27 | 1016.2 |
| 20260504013523 | 66 | 301 | 10.4 | 15.6 | 0.00 | 0.00 | 0.00 | 26 | 1016.2 |
| 20260504013059 | 67 | 281 | 10.4 | 17.4 | 0.00 | 0.00 | 0.00 | 26 | 1016.3 |
| 20260504012520 | 66 | 292 | 10.4 | 17.4 | 0.00 | 0.00 | 0.00 | 26 | 1016.3 |
| 20260504012020 | 67 | 287 | 7.8 | 14.8 | 0.00 | 0.00 | 0.00 | 26 | 1016.3 |
| 20260504011557 | 66 | 243 | 6.1 | 14.8 | 0.00 | 0.00 | 0.00 | 26 | 1016.5 |
| 20260504011021 | 66 | 293 | 7.8 | 13.9 | 0.00 | 0.00 | 0.00 | 26 | 1016.5 |
| 20260504010522 | 66 | 306 | 9.6 | 15.6 | 0.00 | 0.00 | 0.00 | 26 | 1016.4 |
| 20260504005521 | 67 | 277 | 9.6 | 18.2 | 0.00 | 0.00 | 0.00 | 26 | 1016.6 |
| 20260504005018 | 67 | 284 | 7.8 | 18.2 | 0.00 | 0.00 | 0.00 | 25 | 1016.7 |
| 20260504004612 | 67 | 293 | 7.0 | 17.4 | 0.00 | 0.00 | 0.00 | 26 | 1016.7 |
| 20260504004021 | 67 | 292 | 8.7 | 17.4 | 0.00 | 0.00 | 0.00 | 24 | 1016.8 |
| 20260504003516 | 67 | 323 | 7.0 | 13.0 | 0.00 | 0.00 | 0.00 | 27 | 1016.7 |
| 20260504002514 | 67 | 298 | 6.1 | 13.0 | 0.00 | 0.00 | 0.00 | 28 | 1016.9 |
| 20260504002149 | 66 | 299 | 6.1 | 13.0 | 0.00 | 0.00 | 0.00 | 27 | 1017.0 |
| 20260504001017 | 66 | 295 | 7.8 | 14.8 | 0.00 | 0.00 | 0.00 | 26 | 1017.0 |
| 20260504000520 | 68 | 252 | 9.6 | 14.8 | 0.00 | 0.00 | 0.00 | 25 | 1017.2 |
| 20260504000139 | 67 | 280 | 9.6 | 14.8 | 0.00 | 0.00 | 0.00 | 26 | 1017.2 |
| 20260503235516 | 66 | 265 | 7.8 | 13.0 | 0.00 | 0.00 | 0.00 | 26 | 1017.3 |
| 20260503234549 | 67 | 296 | 6.1 | 12.2 | 0.00 | 0.00 | 0.00 | 26 | 1017.1 |
| 20260503234015 | 66 | 302 | 7.8 | 12.2 | 0.00 | 0.00 | 0.00 | 26 | 1017.0 |
| 20260503233514 | 66 | 287 | 5.2 | 13.0 | 0.00 | 0.00 | 0.00 | 26 | 1017.4 |
| 20260503233038 | 67 | 301 | 8.7 | 13.0 | 0.00 | 0.00 | 0.00 | 26 | 1017.1 |
| 20260503232754 | 67 | 311 | 6.1 | 16.5 | 0.00 | 0.00 | 0.00 | 26 | 1017.2 |
| 20260503232256 | 66 | 291 | 7.8 | 16.5 | 0.00 | 0.00 | 0.00 | 26 | 1017.2 |
| 20260503231545 | 67 | 294 | 9.6 | 13.0 | 0.00 | 0.00 | 0.00 | 25 | 1017.3 |
| 20260503231019 | 67 | 286 | 4.3 | 13.9 | 0.00 | 0.00 | 0.00 | 28 | 1017.4 |
| 20260503230521 | 67 | 299 | 10.4 | 13.9 | 0.00 | 0.00 | 0.00 | 25 | 1017.3 |
| 20260503230044 | 67 | 281 | 7.8 | 14.8 | 0.00 | 0.00 | 0.00 | 26 | 1017.4 |
| 20260503225517 | 66 | 294 | 7.0 | 14.8 | 0.00 | 0.00 | 0.00 | 25 | 1017.4 |
| 20260503225016 | 65 | 304 | 4.3 | 13.0 | 0.00 | 0.00 | 0.00 | 26 | 1017.6 |
| 20260503224554 | 67 | 280 | 8.7 | 11.3 | 0.00 | 0.00 | 0.00 | 26 | 1017.7 |
| 20260503224014 | 66 | 289 | 7.0 | 13.0 | 0.00 | 0.00 | 0.00 | 27 | 1017.8 |
| 20260503223517 | 66 | 279 | 7.0 | 11.3 | 0.00 | 0.00 | 0.00 | 25 | 1018.1 |
| 20260503223048 | 67 | 282 | 7.0 | 10.4 | 0.00 | 0.00 | 0.00 | 26 | 1018.1 |
| 20260503222515 | 67 | 290 | 6.1 | 9.6 | 0.00 | 0.00 | 0.00 | 25 | 1018.2 |
| 20260503222013 | 66 | 5 | 3.5 | 13.9 | 0.00 | 0.00 | 0.00 | 29 | 1018.2 |
| 20260503221548 | 66 | 316 | 7.0 | 13.9 | 0.00 | 0.00 | 0.00 | 25 | 1018.4 |
| 20260503221017 | 66 | 311 | 7.8 | 13.0 | 0.00 | 0.00 | 0.00 | 26 | 1018.3 |
| 20260503220514 | 67 | 292 | 3.5 | 8.7 | 0.00 | 0.00 | 0.00 | 25 | 1018.5 |
| 20260503220045 | 66 | 314 | 4.3 | 11.3 | 0.00 | 0.00 | 0.00 | 26 | 1018.5 |
| 20260503215516 | 67 | 263 | 7.0 | 11.3 | 0.00 | 0.00 | 0.00 | 25 | 1018.5 |
| 20260503215016 | 67 | 282 | 3.5 | 7.0 | 0.00 | 0.00 | 0.00 | 27 | 1018.5 |
| 20260503214544 | 66 | 283 | 4.3 | 10.4 | 0.00 | 0.00 | 0.00 | 27 | 1018.5 |
| 20260503214142 | 65 | 260 | 5.2 | 12.2 | 0.00 | 0.00 | 0.00 | 27 | 1018.6 |
| 20260503213518 | 66 | 272 | 4.3 | 11.3 | 0.00 | 0.00 | 0.00 | 28 | 1018.6 |
| 20260503213057 | 66 | 288 | 7.0 | 11.3 | 0.00 | 0.00 | 0.00 | 26 | 1018.6 |
| 20260503212516 | 66 | 267 | 3.5 | 11.3 | 0.00 | 0.00 | 0.00 | 30 | 1018.7 |
| 20260503212017 | 66 | 304 | 7.0 | 11.3 | 0.00 | 0.00 | 0.00 | 25 | 1018.7 |
| 20260503211602 | 65 | 226 | 2.6 | 8.7 | 0.00 | 0.00 | 0.00 | 29 | 1018.7 |
| 20260503211015 | 66 | 288 | 5.2 | 8.7 | 0.00 | 0.00 | 0.00 | 26 | 1018.9 |
| 20260503210515 | 65 | 261 | 2.6 | 8.7 | 0.00 | 0.00 | 0.00 | 28 | 1018.8 |
| 20260503210053 | 65 | 257 | 2.6 | 8.7 | 0.00 | 0.00 | 0.00 | 28 | 1018.9 |
| 20260503205526 | 65 | 277 | 4.3 | 9.6 | 0.00 | 0.00 | 0.00 | 28 | 1019.1 |
| 20260503205019 | 65 | 223 | 1.7 | 7.0 | 0.00 | 0.00 | 0.00 | 28 | 1019.0 |
| 20260503204611 | 65 | 263 | 3.5 | 8.7 | 0.00 | 0.00 | 0.00 | 26 | 1019.1 |
| 20260503204017 | 66 | 281 | 4.3 | 8.7 | 0.00 | 0.00 | 0.00 | 25 | 1019.1 |
| 20260503203523 | 66 | 238 | 2.6 | 6.1 | 0.00 | 0.00 | 0.00 | 30 | 1019.1 |
| 20260503203239 | 65 | 248 | 2.6 | 4.3 | 0.00 | 0.00 | 0.00 | 26 | 1019.2 |
| 20260503202518 | 65 | 297 | 0.9 | 7.8 | 0.00 | 0.00 | 0.00 | 28 | 1019.2 |
| 20260503202258 | 64 | 220 | 3.5 | 7.8 | 0.00 | 0.00 | 0.00 | 29 | 1019.2 |
| 20260503201557 | 64 | 215 | 2.6 | 7.8 | 0.00 | 0.00 | 0.00 | 28 | 1019.2 |
| 20260503201018 | 64 | 289 | 3.5 | 6.1 | 0.00 | 0.00 | 0.00 | 28 | 1019.2 |
| 20260503200520 | 64 | 254 | 2.6 | 5.2 | 0.00 | 0.00 | 0.00 | 29 | 1019.5 |
| 20260503200044 | 63 | 119 | 0.9 | 5.2 | 0.00 | 0.00 | 0.00 | 28 | 1019.2 |
| 20260503195520 | 63 | 360 | 1.7 | 7.8 | 0.00 | 0.00 | 0.00 | 28 | 1019.2 |
| 20260503195026 | 63 | 277 | 3.5 | 7.8 | 0.00 | 0.00 | 0.00 | 30 | 1019.5 |
| 20260503194557 | 62 | 287 | 3.5 | 10.4 | 0.00 | 0.00 | 0.00 | 31 | 1019.6 |
| 20260503194015 | 62 | 290 | 3.5 | 10.4 | 0.00 | 0.00 | 0.00 | 28 | 1019.6 |
| 20260503193518 | 62 | 18 | 4.3 | 11.3 | 0.00 | 0.00 | 0.00 | 31 | 1019.7 |
| 20260503193039 | 61 | 290 | 7.0 | 11.3 | 0.00 | 0.00 | 0.00 | 30 | 1019.6 |
| 20260503192514 | 61 | 9 | 4.3 | 11.3 | 0.00 | 0.00 | 0.00 | 31 | 1019.7 |
| 20260503192015 | 61 | 320 | 4.3 | 9.6 | 0.00 | 0.00 | 0.00 | 30 | 1019.7 |
| 20260503191545 | 61 | 287 | 2.6 | 9.6 | 0.00 | 0.00 | 0.00 | 30 | 1019.8 |
| 20260503191015 | 61 | 338 | 5.2 | 9.6 | 0.00 | 0.00 | 0.00 | 32 | 1019.8 |
| 20260503190520 | 61 | 320 | 4.3 | 9.6 | 0.00 | 0.00 | 0.00 | 30 | 1019.8 |
| 20260503190050 | 61 | 302 | 1.7 | 11.3 | 0.00 | 0.00 | 0.00 | 28 | 1019.7 |
| 20260503185526 | 61 | 302 | 7.8 | 12.2 | 0.00 | 0.00 | 0.00 | 30 | 1019.9 |
| 20260503185016 | 60 | 292 | 7.8 | 12.2 | 0.00 | 0.00 | 0.00 | 32 | 1019.8 |
| 20260503184552 | 60 | 267 | 7.8 | 11.3 | 0.00 | 0.00 | 0.00 | 31 | 1019.8 |
| 20260503184015 | 60 | 247 | 5.2 | 10.4 | 0.00 | 0.00 | 0.00 | 31 | 1019.8 |
| 20260503183518 | 60 | 271 | 7.0 | 10.4 | 0.00 | 0.00 | 0.00 | 31 | 1019.9 |
| 20260503182518 | 60 | 323 | 7.0 | 11.3 | 0.00 | 0.00 | 0.00 | 32 | 1019.9 |
| 20260503182017 | 60 | 286 | 4.3 | 8.7 | 0.00 | 0.00 | 0.00 | 32 | 1019.9 |
| 20260503181602 | 60 | 295 | 5.2 | 7.8 | 0.00 | 0.00 | 0.00 | 34 | 1019.9 |
| 20260503181019 | 59 | 267 | 5.2 | 9.6 | 0.00 | 0.00 | 0.00 | 33 | 1020.1 |
| 20260503180516 | 59 | 309 | 5.2 | 9.6 | 0.00 | 0.00 | 0.00 | 32 | 1020.1 |
| 20260503180050 | 59 | 300 | 4.3 | 8.7 | 0.00 | 0.00 | 0.00 | 33 | 1020.0 |
| 20260503175515 | 59 | 308 | 3.5 | 6.1 | 0.00 | 0.00 | 0.00 | 33 | 1020.1 |
| 20260503174554 | 58 | 303 | 1.7 | 7.8 | 0.00 | 0.00 | 0.00 | 34 | 1020.2 |